This demonstration page uses our WeatherBlox Daily Observations layout. Learn more.

Left ArrowRight Arrow

34.74481, -87.66753

Hourly Observations for June 25, 2019

Temp ( °F °C ) Dew Point ( °F °C ) Humidity (%) Winds ( mph kmh ) Pressure ( in mb ) Visibility ( mi km ) Precip ( " mm )
12:53 am 00:53 Clear 72 22.2 67 19.4 84 84 Calm 29.95 1014 10 16 0.00 0.00
1:53 am 01:53 Clear 71 21.7 67 19.4 87 87 Calm 29.96 1015 10 16 0.00 0.00
2:53 am 02:53 Clear 70 21.1 66 18.9 87 87 undefined N/A 29.97 1015 10 16 0.00 0.00
3:53 am 03:53 Clear 69 20.6 67 19.4 93 93 Calm 29.99 1016 10 16 0.00 0.00
4:53 am 04:53 Clear 68 20 66 18.9 93 93 undefined N/A 30.00 1016 10 16 0.00 0.00
5:53 am 05:53 Sunny 69 20.6 66 18.9 90 90 Calm 30.02 1017 10 16 0.00 0.00
6:53 am 06:53 Sunny 72 22.2 68 20 87 87 Calm 30.04 1017 10 16 0.00 0.00
7:53 am 07:53 Sunny 76 24.4 70 21.1 82 82 Calm 30.06 1018 10 16 0.00 0.00
8:53 am 08:53 Sunny 79 26.1 70 21.1 74 74 WNW 6 9 30.08 1019 10 16 0.00 0.00
9:53 am 09:53 Mostly Sunny 82 27.8 69 20.6 65 65 Calm 30.06 1018 10 16 0.00 0.00
10:53 am 10:53 Mostly Sunny 82 27.8 68 20 63 63 Calm 30.08 1019 10 16 0.00 0.00
11:53 am 11:53 Partly Cloudy 84 28.9 67 19.4 57 57 WSW 3 6 30.09 1019 10 16 0.00 0.00
12:53 pm 12:53 Mostly Cloudy 87 30.6 65 18.3 48 48 WSW 8 13 30.08 1019 10 16 0.00 0.00
1:53 pm 13:53 Mostly Sunny 90 32.2 66 18.9 45 45 VRB 5 7 30.07 1018 10 16 0.00 0.00
2:53 pm 14:53 Mostly Cloudy 88 31.1 64 17.8 45 45 VRB 5 7 30.06 1018 10 16 0.00 0.00
3:53 pm 15:53 Mostly Cloudy 89 31.7 65 18.3 45 45 Calm 30.06 1018 10 16 0.00 0.00
4:53 pm 16:53 Partly Cloudy 90 32.2 65 18.3 44 44 VRB 6 9 30.05 1018 10 16 0.00 0.00
5:53 pm 17:53 Partly Cloudy 89 31.7 66 18.9 47 47 NW 7 11 30.05 1018 10 16 0.00 0.00
6:53 pm 18:53 Sunny 86 30 67 19.4 53 53 W 5 7 30.04 1017 10 16 0.00 0.00
7:53 pm 19:53 Sunny 83 28.3 68 20 61 61 W 5 7 30.06 1018 10 16 0.00 0.00
8:53 pm 20:53 Clear 81 27.2 70 21.1 69 69 Calm 30.07 1018 10 16 0.00 0.00
9:53 pm 21:53 Clear 79 26.1 70 21.1 74 74 Calm 30.09 1019 10 16 0.00 0.00
10:53 pm 22:53 Clear 76 24.4 71 21.7 85 85 Calm 30.10 1019 10 16 0.00 0.00
11:53 pm 23:53 Mostly Clear 76 24.4 72 22.2 88 88 SSE 3 6 30.10 1019 10 16 0.00 0.00

Powered by AerisWeather